Tracking 20719 objects as of 26-May-2020
HD Live streaming from Space Station
objects crossing your sky now

COSMOS 1761

Track COSMOS 1761 now!
COSMOS 1761 is classified as:


NORAD ID: 16849
Int'l Code: 1986-050A
Perigee: 6,162.5 km
Apogee: 34,196.8 km
Inclination: 69.7 °
Period: 717.6 minutes
Semi major axis: 26550 km
RCS: 12.1379 m2 (large)
Launch date: July 5, 1986
Source: Commonwealth of Independent States (former USSR) (CIS)
Launch site: PLESETSK MISSILE AND SPACE COMPLEX (PKMTR)
aabbcc
Your satellite tracking list
Your tracking list is empty




NASA's NSSDC Master Catalog

Two Line Element Set (TLE):
1 16849U 86050A   20141.45143708 -.00000483 +00000-0 +00000-0 0  9993
2 16849 069.7378 158.7437 5279389 062.7609 030.2369 02.00673590248153
Source of the keplerian elements: AFSPC